Regional Weather Roundup
Issued by NWS Jackson, KY

Home | Current Version | Previous Version | Graphics & Text | Print | Product List | Glossary On
Versions: 1 2 3 4 5 6 7 8 9 10 11 12 13 14 15 16 17 18 19 20 21 22 23 24 25 26 27
000
ASUS43 KJKL 231410
RWRJKL

EAST KENTUCKY HOURLY WEATHER ROUNDUP
NATIONAL WEATHER SERVICE JACKSON KY
900 AM EST MON JAN 23 2017

NOTE: "FAIR" INDICATES FEW OR NO CLOUDS BELOW 12,000 FEET WITH
NO SIGNIFICANT WEATHER AND/OR OBSTRUCTIONS TO VISIBILITY.

* THESE REPORTS ARE NOT UNDER NWS QUALITY CONTROL AND MAY NOT
  REPORT WEATHER SUCH AS PRECIPITATION AND FOG.

KYZ079-080-083-085-087-088-110-112-115-119-120-231500
...EASTERN KENTUCKY...

CITY           SKY/WX    TMP DP  RH WIND       PRES   REMARKS
JACKSON        LGT RAIN  50  48  93 NE8       29.34R
LONDON         RAIN      52  49  89 N8        29.36R FOG
SOMERSET*      RAIN      50  50 100 N13G22    29.41R
MONTICELLO*    RAIN      52  50  93 N16G23    29.43R
WILLIAMSBURG*  CLOUDY    52  52 100 N9        29.35R
MIDDLESBORO*   LGT RAIN  53  50  92 N5        29.32R
HARLAN APT*    CLOUDY    52  46  82 NW9G16    29.30R
PIKE CO APT*   LGT RAIN  49  49 100 N12G18    29.31R
BIG SANDY APT* RAIN      50  50 100 N8G17     29.34R
MOREHEAD APT*  LGT RAIN  52  48  87 N9G17     29.41R
ASHLAND*       CLOUDY    52  48  87 CALM      29.37R
$$

KYZ035-036-041-042-044-050-067-078-099-231500
...CENTRAL KENTUCKY...

CITY           SKY/WX    TMP DP  RH WIND       PRES   REMARKS
MT STERLING*   RAIN      50  50 100 NE12      29.42R
FLEMING/MASON* LGT RAIN  50  49  97 N9G16     29.44R
DANVILLE*      LGT RAIN  48  48 100 N14G23    29.45R
LEXINGTON      LGT RAIN  50  47  89 N20       29.45R
FRANKFORT      LGT RAIN  50  46  86 N14G21    29.47R
LOUISVILLE     CLOUDY    52  46  80 N22G30    29.53R
LEBANON*       LGT RAIN  50  48  93 NW15G22   29.48R
GLASGOW*       CLOUDY    50  46  87 NW14G22   29.52R
BOWLING GREEN  CLOUDY    47  43  86 NW13G24   29.56R
$$

KYZ091>093-OHZ055-061-077-WVZ005-015-034-035-042-231500
...SOUTHERN OHIO/WEST VIRGINIA...

CITY           SKY/WX    TMP DP  RH WIND       PRES   REMARKS
COVINGTON      LGT RAIN  45  44  97 N16       29.51R FOG
COLUMBUS       LGT RAIN  52  47  83 NE10      29.48R
DAYTON         LGT RAIN  41  40  96 N13       29.55R FOG
WILMINGTON     LGT RAIN  45  44  97 N16       29.48R FOG
HUNTINGTON     LGT RAIN  50  47  89 N7        29.36R
CHARLESTON     LGT RAIN  50  46  86 NE13G18   29.34R
BECKLEY        LGT RAIN  46  42  86 NE10      29.30R
BLUEFIELD      RAIN      43  42  97 VRB7      29.29R FOG
LOGAN CO APT*  LGT RAIN  48  48 100 VRB5G15   29.31R
$$

VAZ002-007-008-TNZ017-027-036-066-071-231500
...SOUTHWEST VIRGINIA/EAST TENNESSEE...

CITY           SKY/WX    TMP DP  RH WIND       PRES   REMARKS
WISE*          LGT RAIN  46  46 100 NE10G22   29.30R
JONESVILLE*    LGT RAIN  50  48  93 NW7       29.30R
ABINGDON*      RAIN      49  47  93 E8        29.25R
BRISTOL        CLOUDY    50  49  96 NE6       29.24R
MORRISTOWN*    CLOUDY    50  50 100 NW6       29.27R
SEVIERVILLE*   CLOUDY    46  46 100 W7        29.29R
KNOXVILLE      LGT RAIN  48  46  93 SW7       29.29R FOG
LAFOLLETTE*    PTSUNNY   54  50  87 N6G15     29.34R
OAK RIDGE      LGT RAIN  50  48  93 CALM      29.32R
CROSSVILLE     LGT RAIN  50  47  89 NW21G31   29.39R
NASHVILLE      CLOUDY    47  42  83 NW21G30   29.57R
$$

...KEY TO REMARKS...
VSB - VISIBILITY IN MILES
WCI - WIND CHILL INDEX
HX  - HEAT INDEX

$$




USA.gov is the U.S. government's official web portal to all federal, state and local government web resources and services.